Flag for Brazil Weather past 2 weeks in Cuiabá, Mato Grosso, Brazil

Now
81 °F

Clear.


Feels Like: 83 °F
Forecast: 74 / 96 °F
Wind: 9 mph from Northeast

Location: Cuiaba Aeroporto

Current Time: Oct 23, 2014 at 1:15:47 AM

Latest Report: Oct 23, 2014 at 1:00 AM


Visibility: 10 mi

Pressure: 29.92 "Hg

Humidity: 66%

Dew point: 68 °F

Location of CuiabáLocation

Historic Weather in Cuiabá — Graph

°F

Cuiabá temperature yesterday

Maximum temperature yesterday: 102 °F (at 4:00 PM)
Minimum temperature yesterday: 77 °F (at 8:00 PM)
Average temperature yesterday: 85 °F

Past Weeks' High & Low Weather Summary

 TemperatureHumidityPressure
High106 °F (Oct 11, 1:00 PM)94% (Oct 21, 7:00 AM)30.04 "Hg (Oct 21, 7:00 AM)
Low73 °F (Oct 21, 6:00 AM)18% (Oct 9, 3:00 PM)29.71 "Hg (Oct 9, 2:00 PM)
Average88 °F52%29.85 "Hg
* Reported Oct 7 11:00 PM — Midnight between Oct 22 and Oct 23, Cuiabá, Weather by CustomWeather, © 2014

Note: Actual official high and low records may vary slightly from our data, if they occured in-between our weather recording intervals... More about our weather records

Advertising

Cuiabá weather history for previous 24 hours

 ConditionsComfort  
Time TempWeatherWind HumidityBarometerVisibility
12:00 AM
Oct 23
81 °FClear.5 mph70%29.92 "Hg10 mi
11:00 PM
Oct 22
79 °FClear.12 mph79%29.92 "Hg10 mi
10:00 PM77 °FPassing clouds.5 mph83%29.89 "HgN/A
9:00 PM77 °FPassing clouds.6 mph83%29.86 "HgN/A
8:00 PM77 °FPassing clouds.9 mph83%29.86 "HgN/A
7:00 PM79 °FPassing clouds.7 mph74%29.83 "HgN/A
6:00 PM90 °FThunderstorms. Partly sunny.10 mph49%29.80 "HgN/A
5:00 PM99 °FScattered clouds.2 mph31%29.74 "HgN/A
4:00 PM102 °FScattered clouds.3 mph27%29.77 "HgN/A
3:00 PMN/AScattered clouds.N/AN/A29.80 "HgN/A
2:00 PMN/AScattered clouds.N/AN/A29.83 "HgN/A
1:00 PMN/APassing clouds.N/AN/A29.89 "HgN/A
12:00 PM95 °FPassing clouds.12 mph39%29.92 "HgN/A
11:00 AM93 °FSunny.9 mph44%29.95 "Hg10 mi
10:00 AM88 °FSunny.2 mph55%29.95 "Hg10 mi
9:00 AM86 °FSunny.2 mph62%29.95 "Hg10 mi
8:00 AM82 °FSunny.2 mph66%29.92 "Hg10 mi
7:00 AM79 °FSunny.No wind79%29.89 "Hg10 mi
6:00 AM79 °FClear.3 mph79%29.86 "Hg10 mi
5:00 AM81 °FPassing clouds.5 mph74%29.86 "HgN/A
4:00 AM81 °FPassing clouds.6 mph74%29.86 "HgN/A
3:00 AM81 °FPassing clouds.8 mph74%29.86 "HgN/A
1:00 AM84 °FPassing clouds.6 mph62%29.89 "HgN/A
Weather by CustomWeather, © 2014

See weather overviewHow to use our weather pages